Dewpoint
75 75 75 75 74 74 74 75 76 75 76 75 75 75 75 76 76 75 75 76 77 77 77 77 77 77 77 77 78 78 77 76 75 76 75 73 72 70 68 68 68 69
74 75 76 75 75 75 75 75 76 76 76 76 76 76 77 77 76 76 76 76 77 77 77 77 77 77 77 76 78 77 78 76 76 75 75 73 73 71 69 69 67 69
74 75 75 75 73 74 72 74 76 77 76 76 76 76 76 76 76 76 77 76 76 76 77 77 77 77 77 77 78 77 77 77 76 74 75 74 73 72 71 67 67 69
75 75 74 73 74 74 73 73 74 76 76 76 75 74 74 73 75 75 76 77 76 76 77 77 76 76 77 77 78 77 77 77 76 76 75 75 74 72 71 71 68 68
75 75 74 74 74 75 74 73 71 73 74 75 75 75 74 75 76 75 75 76 77 76 77 77 77 76 78 78 77 77 77 77 77 77 75 75 74 73 71 71 70 68
75 75 75 75 75 75 74 73 72 71 72 72 74 75 74 74 75 74 75 75 74 74 75 76 76 76 77 77 77 77 76 76 76 77 76 75 73 72 71 72 71 69
75 75 75 75 74 75 74 74 74 73 73 73 75 74 75 74 74 74 75 75 74 74 74 76 77 76 76 77 77 76 76 76 76 76 76 75 74 73 71 71 72 70
74 74 74 74 73 74 74 74 74 74 74 74 73 75 75 74 74 73 75 76 75 76 76 76 77 77 76 76 76 76 76 75 75 76 76 75 74 73 72 71 72 71
74 74 74 74 72 72 72 71 73 74 75 74 73 72 74 74 74 73 75 76 76 76 77 76 77 76 76 76 76 76 75 74 74 75 75 75 74 74 73 72 71 71
74 74 73 73 72 73 72 71 71 72 74 73 73 72 73 74 75 75 76 76 76 76 77 76 76 76 76 76 76 76 76 75 74 74 75 74 74 73 73 72 71 71
73 73 73 73 73 72 71 71 70 72 73 73 72 71 72 74 74 75 76 76 75 76 77 77 76 76 76 75 76 76 76 75 75 75 75 74 74 74 74 73 72 71
74 72 71 73 73 70 70 70 70 70 72 73 73 72 72 72 74 74 75 77 76 76 76 77 77 76 76 76 75 75 76 75 75 75 74 74 74 73 73 73 72 72
73 72 73 73 73 72 71 70 69 69 70 71 72 72 71 69 72 74 75 76 77 76 76 77 77 76 77 77 76 76 76 76 75 75 74 74 74 73 73 73 72 72
74 74 72 73 73 74 73 71 70 70 71 72 74 73 71 71 70 73 75 75 76 77 76 76 77 77 77 77 77 76 76 76 75 75 74 74 74 74 73 72 72 72
75 75 74 74 73 74 73 72 72 72 73 73 73 73 72 71 71 69 73 75 76 77 77 76 76 76 76 77 77 76 76 76 76 75 74 74 74 73 74 73 73 72
76 76 75 75 74 75 74 73 73 73 73 73 72 73 74 74 74 72 70 74 75 76 77 77 76 76 73 69 71 76 76 75 75 75 75 74 74 74 73 74 73 72
76 76 76 75 75 75 76 75 74 74 74 74 73 73 73 76 75 73 70 70 74 75 76 77 76 75 68 66 67 69 74 75 75 76 76 75 74 74 74 74 73 73
76 77 77 76 76 75 76 76 75 74 74 74 73 73 74 74 75 75 74 71 73 75 75 76 76 70 66 65 66 66 69 75 75 75 75 75 74 74 74 74 74 73
77 77 77 77 76 76 76 76 76 75 74 74 73 73 73 74 75 75 75 74 73 75 75 75 76 69 65 64 65 65 66 71 74 75 74 74 74 74 74 74 74 73
78 78 77 77 77 77 76 76 76 76 75 75 74 75 74 74 74 75 75 75 74 74 75 75 76 69 63 63 63 64 65 68 75 75 74 74 74 74 73 73 74 73
78 78 78 78 78 77 77 76 77 77 77 76 74 74 74 75 74 75 76 75 75 74 74 75 74 67 62 61 62 62 63 65 75 75 75 74 75 75 74 73 73 74
78 78 79 78 78 78 77 77 77 77 77 76 75 73 74 75 76 75 75 75 76 75 73 73 73 64 61 60 61 61 62 69 74 75 75 75 75 75 75 75 74 74
78 78 79 78 78 78 77 77 77 78 78 77 75 74 73 74 74 74 75 75 75 75 75 74 73 66 59 59 60 60 62 71 74 74 74 74 74 75 75 75 75 74
78 79 79 78 78 78 77 77 77 77 77 77 76 74 72 73 74 74 75 75 74 74 74 74 74 69 57 57 58 59 63 72 74 74 74 74 74 74 75 76 75 70
77 79 79 78 78 78 78 77 77 77 77 78 76 75 73 75 75 75 75 75 73 73 71 73 74 70 56 56 57 58 63 73 74 74 74 74 74 74 74 75 76 73
77 79 79 78 78 79 78 78 78 77 77 77 76 75 75 74 73 74 75 75 74 74 73 74 74 75 67 55 56 56 58 72 75 75 74 74 74 74 74 74 75 76